KG5VSR Weather Reports


time (UTC)temp
C
wind
direction
speed
KPH
gust
KPH
rain 1hr
cm
rain 24hr
cm
rain mn
cm
humidity
%
barometer
mb
20260502121017 9 83 0.0 0.0 0.00 0.00 0.00 98 1021.2
20260502114015 9 83 0.0 0.0 0.00 0.00 0.00 98 1020.8
20260502111012 10 82 0.0 0.0 0.00 0.00 0.00 97 1020.0
20260502104008 10 83 0.0 0.0 0.00 0.00 0.00 97 1019.9
20260502101004 10 81 0.0 0.0 0.00 0.00 0.00 97 1019.6
20260502090957 10 82 0.0 0.0 0.00 0.00 0.00 98 1019.7
20260502070939 10 82 0.0 0.0 0.00 0.00 0.00 97 1019.6
20260502063936 10 82 0.0 0.0 0.00 0.00 0.00 97 1019.7
20260502060932 11 82 0.0 0.0 0.00 0.00 0.00 96 1019.5
20260502053929 11 82 0.0 0.0 0.00 0.00 0.00 95 1019.7
20260502050926 12 82 0.0 0.0 0.00 0.00 0.00 93 1019.6
20260502043923 12 82 0.0 0.0 0.00 0.00 0.00 92 1019.4
20260502040921 13 82 0.0 0.0 0.00 0.00 0.00 90 1019.3
20260502033917 13 82 0.0 0.0 0.00 0.00 0.00 88 1019.5
20260502030912 15 83 0.0 0.0 0.00 0.00 0.00 84 1019.1
20260502023910 15 83 0.0 0.0 0.00 0.00 0.00 82 1019.0
20260502020909 15 83 0.0 0.0 0.00 0.00 0.00 80 1018.7
20260502013908 15 83 0.0 0.0 0.00 0.00 0.00 77 1018.1
20260502010907 15 79 0.0 0.0 0.00 0.00 0.00 78 1017.4
20260502003906 16 74 0.0 0.0 0.00 0.00 0.00 74 1017.0
20260502000907 16 74 0.0 0.0 0.00 0.00 0.00 72 1016.8
20260501233904 17 72 0.0 1.6 0.00 0.00 0.00 70 1016.2
20260501230859 17 70 0.0 1.6 0.00 0.00 0.00 68 1016.1
20260501223854 17 69 1.6 1.6 0.00 0.00 0.00 68 1016.3
20260501220853 17 75 0.0 0.0 0.00 0.00 0.00 67 1015.9
20260501213853 17 89 3.2 3.2 0.00 0.00 0.00 65 1016.0
20260501210851 17 88 1.6 3.2 0.00 0.00 0.00 63 1015.8
20260501203848 17 11 0.0 1.6 0.00 0.00 0.00 64 1016.7
20260501200847 17 35 4.8 4.8 0.00 0.00 0.00 59 1016.8
20260501193844 17 70 4.8 8.0 0.00 0.00 0.00 61 1015.8
20260501190839 17 96 4.8 9.7 0.00 0.00 0.00 60 1015.9
20260501183838 17 78 8.0 14.5 0.00 0.00 0.00 62 1016.1
20260501180837 18 51 0.0 0.0 0.00 0.00 0.00 64 1017.0
20260501173836 17 49 8.0 14.5 0.00 0.00 0.00 63 1017.3
20260501170831 16 101 4.8 8.0 0.00 0.00 0.00 68 1017.7
20260501163826 15 50 4.8 4.8 0.00 0.00 0.00 71 1017.9
20260501160824 15 68 3.2 3.2 0.00 0.00 0.00 71 1017.8
20260501153824 14 53 1.6 3.2 0.00 0.00 0.00 72 1018.1
20260501150821 14 51 1.6 1.6 0.00 0.00 0.00 74 1017.7
20260501143818 14 75 6.4 8.0 0.00 0.00 0.00 77 1018.4
20260501140816 14 64 0.0 1.6 0.00 0.00 0.00 81 1017.6
20260501133813 14 102 0.0 0.0 0.00 0.00 0.00 85 1017.2